Regional Weather Roundup
Issued by NWS

Home | Current Version | Previous Version | Graphics & Text | Print | Product List | Glossary On
Versions: 1 2 3 4 5 6 7 8 9 10 11 12 13 14 15 16 17 18 19 20 21 22 23 24 25 26 27 28 29 30 31 32 33 34 35 36 37 38 39 40 41 42 43 44 45 46 47 48 49 50
246
ASUS44 KJAN 010703
RWRMS

MISSISSIPPI HOURLY WEATHER ROUNDUP
NATIONAL WEATHER SERVICE JACKSON MS
200 AM CDT FRI AUG 01 2014

NOTE: "FAIR: INDICATES FEW OR NO CLOUDS BELOW 12,000 FEET WITH NO
SIGNIFICANT WEATHER AND/OR OBSTRUCTIONS TO VISIBILITY.

MSZ001>002-007>008-010>013-018>021-025>028-034>036-010800-
NORTHWEST MISSISSIPPI

CITY           SKY/WX    TMP DP  RH WIND       PRES   REMARKS
CLARKSDALE     FAIR      68  68 100 CALM      30.05S
CLEVELAND      PTSUNNY   70  69  97 N3        30.03S
GREENWOOD      MOCLDY    69  66  90 NE5       30.02F FOG
GREENVILLE     CLOUDY    70  68  93 N5        30.03R
GRENADA        FAIR      70  68  94 CALM      30.03S
OLIVE BRANCH   MOCLDY    70  70 100 CALM      30.06R
OXFORD         FAIR      70  66  88 CALM      30.06S
TUNICA         DRIZZLE   70  66  88 CALM      30.06S
$$

MSZ003>006-009-014>017-022>024-029>033-037>039-010800-
NORTHEAST MISSISSIPPI

CITY           SKY/WX    TMP DP  RH WIND       PRES   REMARKS
BELMONT        FAIR      65  64  98 CALM      30.06R FOG
COLUMBUS AFB   MOCLDY    68  68  99 N2        30.03F
CORINTH          N/A     66  64  94 CALM      30.05S
GOLDN TRIANGLE MOCLDY    68  63  83 CALM      30.03S
STARKVILLE     FAIR      64  64 100 CALM      30.03S
TUPELO         MOCLDY    69  65  86 NE5       30.04S
$$

MSZ040-058-010800-
CENTRAL MISSISSIPPI

CITY           SKY/WX    TMP DP  RH WIND       PRES   REMARKS
JACKSON INTL   CLOUDY    74  66  76 E3        30.01F
JACKSON HAWKNS CLOUDY    75  64  68 E5        30.02F
MERIDIAN KEY   MOCLDY    66  63  90 CALM      30.01F
MERIDIAN NAS   CLOUDY    67  63  87 CALM      30.02F
RAYMOND        FAIR      70  66  88 CALM      30.01F FOG
VICKSBURG      CLOUDY    73  68  84 N5        30.01S
$$

MSZ059>079-010800-
SOUTH MISSISSIPPI

CITY           SKY/WX    TMP DP  RH WIND       PRES   REMARKS
BROOKHAVEN     FAIR      70  66  88 CALM      30.02F
COLUMBIA       FAIR      70  68  94 CALM      30.00S
HATTIESBURG    CLOUDY    71  69  93 CALM      30.01F
MCCOMB         CLOUDY    73  64  73 E3        30.00F
NATCHEZ        CLOUDY    73  64  73 E6        30.00S
PINE BELT      CLOUDY    70  66  88 MISG      30.02S
$$

MSZ080>082-010800-
COASTAL MISSISSIPPI

CITY           SKY/WX    TMP DP  RH WIND       PRES   REMARKS
BILOXI         CLOUDY    75  67  77 NE3       29.98F
PASCAGOULA     MOCLDY    69  67  93 CALM      29.98F
GULFPORT       MOCLDY    78  67  68 CALM      29.98F
$$



USA.gov is the U.S. government's official web portal to all federal, state and local government web resources and services.